Bend, OR

2:42 AM PDT on August 24, 2019 (GMT -0700)
Bend Municipal

Weather History for KBDN - June, 2019

Change the Weather History Date:

Friday, June 7, 2019

  Actual Average (KRDM) Record (KRDM)
Temperature  
Mean Temperature 47 °F -  
Max Temperature 57 °F 69 °F 94 °F (2016)
Min Temperature 37 °F 37 °F 27 °F (1979)
Degree Days  
Heating Degree Days 18    
Moisture  
Dew Point 30 °F    
Average Humidity 52    
Maximum Humidity 87    
Minimum Humidity 33    
Precipitation  
Precipitation 0.00 in - - ()
Sea Level Pressure  
Sea Level Pressure 30.11 in    
Wind  
Wind Speed 7 mph (WNW)    
Max Wind Speed 22 mph    
Max Gust Speed 32 mph    
Visibility 10 miles    
Events      
Averages and records for this station are not official NWS values.
T = Trace of Precipitation, MM = Missing Value Source: NWS Daily Summary

Daily Weather History Graph

Daily Weather History Graph

Search for Another Location

Airport or City:

Astronomy

Jun. 07, 2019 Rise Set
Actual Time 5:22 AM PDT 8:45 PM PDT
Civil Twilight 4:46 AM PDT 9:21 PM PDT
Nautical Twilight 3:59 AM PDT 10:08 PM PDT
Astronomical Twilight 3:00 AM PDT 11:07 PM PDT
Moon 9:48 AM PDT (6/7) 12:04 AM PDT (6/7)
Length of Visible Light 16h 35m
Length of Day
15h 23m
Waxing Crescent, 23% of the Moon is Illuminated
Jun 7
Waxing Crescent
Jun 9
First Quarter
Jun 17
Full
Jun 25
Last Quarter
Jul 2
New

Hourly Weather History & Observations

Time (PDT) Temp. Windchill Dew Point Humidity Pressure Visibility Wind Dir Wind Speed Gust Speed Precip Events Conditions
12:15 AM 42.8 °F - 32.0 °F 66% 30.04 in 10.0 mi Calm Calm - N/A   Overcast
12:35 AM 42.8 °F - 33.8 °F 70% 30.04 in 10.0 mi Calm Calm - N/A   Overcast
12:55 AM 42.8 °F - 33.8 °F 70% 30.04 in 10.0 mi Calm Calm - N/A   Mostly Cloudy
1:15 AM 42.8 °F - 33.8 °F 70% 30.04 in 10.0 mi Calm Calm - N/A   Overcast
1:35 AM 42.8 °F - 32.0 °F 66% 30.04 in 10.0 mi Calm Calm - N/A   Overcast
1:55 AM 41.0 °F - 33.8 °F 76% 30.03 in 10.0 mi Calm Calm - N/A   Mostly Cloudy
2:15 AM 41.0 °F - 33.8 °F 76% 30.03 in 10.0 mi Calm Calm - N/A   Clear
2:35 AM 39.2 °F 35.0 °F 33.8 °F 81% 30.03 in 10.0 mi SSE 5.8 mph - N/A   Clear
2:55 AM 37.4 °F 33.8 °F 33.8 °F 87% 30.04 in 10.0 mi SE 4.6 mph - N/A   Clear
3:15 AM 39.2 °F 37.0 °F 30.2 °F 70% 30.04 in 10.0 mi SE 3.5 mph - N/A   Clear
3:35 AM 39.2 °F 35.9 °F 30.2 °F 70% 30.04 in 10.0 mi South 4.6 mph - N/A   Clear
3:55 AM 37.4 °F 32.1 °F 30.2 °F 75% 30.03 in 10.0 mi South 6.9 mph - N/A   Clear
4:15 AM 37.4 °F 30.8 °F 30.2 °F 75% 30.03 in 10.0 mi SSW 9.2 mph - N/A   Clear
4:35 AM 37.4 °F 29.8 °F 30.2 °F 75% 30.03 in 10.0 mi SW 11.5 mph - N/A   Clear
4:55 AM 39.2 °F 32.0 °F 28.4 °F 65% 30.04 in 10.0 mi SW 11.5 mph - N/A   Scattered Clouds
5:15 AM 39.2 °F 32.0 °F 28.4 °F 65% 30.04 in 10.0 mi SW 11.5 mph - N/A   Mostly Cloudy
5:35 AM 39.2 °F 32.5 °F 28.4 °F 65% 30.05 in 10.0 mi SW 10.4 mph - N/A   Mostly Cloudy
5:55 AM 39.2 °F 32.5 °F 28.4 °F 65% 30.05 in 10.0 mi SW 10.4 mph - N/A   Mostly Cloudy
6:15 AM 41.0 °F 34.7 °F 28.4 °F 61% 30.05 in 10.0 mi SW 10.4 mph 16.1 mph N/A   Scattered Clouds
6:35 AM 41.0 °F 36.4 °F 28.4 °F 61% 30.06 in 10.0 mi SW 6.9 mph - N/A   Partly Cloudy
6:55 AM 42.8 °F 38.6 °F 28.4 °F 57% 30.07 in 10.0 mi SW 6.9 mph - N/A   Clear
7:15 AM 42.8 °F 40.1 °F 30.2 °F 61% 30.07 in 10.0 mi WSW 4.6 mph - N/A   Mostly Cloudy
7:35 AM 44.6 °F - 30.2 °F 57% 30.08 in 10.0 mi Calm Calm - N/A   Mostly Cloudy
7:55 AM 46.4 °F 45.2 °F 30.2 °F 53% 30.08 in 10.0 mi Variable 3.5 mph - N/A   Mostly Cloudy
8:15 AM 46.4 °F 44.3 °F 30.2 °F 53% 30.08 in 10.0 mi WNW 4.6 mph - N/A   Mostly Cloudy
8:35 AM 46.4 °F 45.2 °F 30.2 °F 53% 30.09 in 10.0 mi West 3.5 mph - N/A   Scattered Clouds
8:55 AM 48.2 °F - 30.2 °F 50% 30.08 in 10.0 mi WSW 6.9 mph - N/A   Partly Cloudy
9:15 AM 50.0 °F - 30.2 °F 47% 30.08 in 10.0 mi Calm Calm - N/A   Partly Cloudy
9:35 AM 50.0 °F - 28.4 °F 43% 30.08 in 10.0 mi NW 9.2 mph - N/A   Scattered Clouds
9:55 AM 51.8 °F - 28.4 °F 41% 30.07 in 10.0 mi WNW 12.7 mph - N/A   Scattered Clouds
10:15 AM 53.6 °F - 28.4 °F 38% 30.07 in 10.0 mi NW 13.8 mph - N/A   Partly Cloudy
10:35 AM 53.6 °F - 26.6 °F 35% 30.07 in 10.0 mi NNW 12.7 mph 20.7 mph N/A   Partly Cloudy
10:55 AM 53.6 °F - 28.4 °F 38% 30.08 in 10.0 mi NW 15.0 mph 23.0 mph N/A   Partly Cloudy
11:15 AM 53.6 °F - 28.4 °F 38% 30.07 in 10.0 mi NW 18.4 mph - N/A   Partly Cloudy
11:35 AM 53.6 °F - 28.4 °F 38% 30.08 in 10.0 mi NNW 11.5 mph 20.7 mph N/A   Partly Cloudy
11:55 AM 55.4 °F - 26.6 °F 33% 30.08 in 10.0 mi NNW 16.1 mph 23.0 mph N/A   Clear
12:15 PM 55.4 °F - 26.6 °F 33% 30.08 in 10.0 mi NNW 12.7 mph 23.0 mph N/A   Clear
12:35 PM 55.4 °F - 26.6 °F 33% 30.08 in 10.0 mi NW 15.0 mph 25.3 mph N/A   Partly Cloudy
12:55 PM 55.4 °F - 28.4 °F 36% 30.08 in 10.0 mi NW 16.1 mph 24.2 mph N/A   Clear
1:15 PM 57.2 °F - 28.4 °F 33% 30.08 in 10.0 mi NNW 18.4 mph 24.2 mph N/A   Clear
1:35 PM 57.2 °F - 28.4 °F 33% 30.08 in 10.0 mi WNW 18.4 mph - N/A   Clear
1:55 PM 57.2 °F - 28.4 °F 33% 30.09 in 10.0 mi WNW 19.6 mph 26.5 mph N/A   Clear
2:15 PM 57.2 °F - 30.2 °F 36% 30.10 in 10.0 mi NW 20.7 mph - N/A   Clear
2:35 PM 57.2 °F - 30.2 °F 36% 30.10 in 10.0 mi NW 18.4 mph 25.3 mph N/A   Clear
2:55 PM 55.4 °F - 30.2 °F 38% 30.10 in 10.0 mi NW 18.4 mph 26.5 mph N/A   Partly Cloudy
3:15 PM 57.2 °F - 28.4 °F 33% 30.11 in 10.0 mi NW 20.7 mph 28.8 mph N/A   Clear
3:35 PM 57.2 °F - 30.2 °F 36% 30.11 in 10.0 mi NW 18.4 mph 26.5 mph N/A   Clear
3:55 PM 55.4 °F - 26.6 °F 33% 30.11 in 10.0 mi NW 20.7 mph 28.8 mph N/A   Clear
4:15 PM 55.4 °F - 28.4 °F 36% 30.11 in 10.0 mi WNW 20.7 mph 29.9 mph N/A   Clear
4:35 PM 55.4 °F - 28.4 °F 36% 30.13 in 10.0 mi NW 21.9 mph 31.1 mph N/A   Clear
4:55 PM 55.4 °F - 30.2 °F 38% 30.13 in 10.0 mi NNW 21.9 mph 27.6 mph N/A   Clear
5:15 PM 55.4 °F - 30.2 °F 38% 30.14 in 10.0 mi NW 13.8 mph 26.5 mph N/A   Clear
5:35 PM 53.6 °F - 30.2 °F 41% 30.14 in 10.0 mi NW 18.4 mph 27.6 mph N/A   Clear
5:55 PM 55.4 °F - 28.4 °F 36% 30.15 in 10.0 mi NW 17.3 mph 32.2 mph N/A   Clear
6:15 PM 51.8 °F - 28.4 °F 41% 30.15 in 10.0 mi NW 17.3 mph 28.8 mph N/A   Clear
6:35 PM 53.6 °F - 30.2 °F 41% 30.15 in 10.0 mi WNW 15.0 mph 21.9 mph N/A   Clear
6:55 PM 51.8 °F - 32.0 °F 47% 30.17 in 10.0 mi WNW 12.7 mph 20.7 mph N/A   Clear
7:15 PM 51.8 °F - 32.0 °F 47% 30.17 in 10.0 mi NW 15.0 mph 20.7 mph N/A   Clear
7:35 PM 50.0 °F - 30.2 °F 47% 30.18 in 10.0 mi NW 11.5 mph 20.7 mph N/A   Clear
7:55 PM 50.0 °F - 30.2 °F 47% 30.18 in 10.0 mi NNW 6.9 mph 16.1 mph N/A   Clear
8:15 PM 48.2 °F - 30.2 °F 50% 30.19 in 10.0 mi NW 12.7 mph - N/A   Clear
8:35 PM 46.4 °F 40.7 °F 32.0 °F 57% 30.19 in 10.0 mi NW 12.7 mph - N/A   Clear
8:55 PM 46.4 °F 44.3 °F 32.0 °F 57% 30.20 in 10.0 mi NNW 4.6 mph 13.8 mph N/A   Partly Cloudy
9:15 PM 44.6 °F 38.8 °F 33.8 °F 66% 30.20 in 10.0 mi NW 11.5 mph - N/A   Partly Cloudy
9:35 PM 44.6 °F 40.7 °F 32.0 °F 61% 30.21 in 10.0 mi West 6.9 mph - N/A   Clear
9:55 PM 44.6 °F 39.7 °F 32.0 °F 61% 30.23 in 10.0 mi West 9.2 mph - N/A   Partly Cloudy
10:15 PM 44.6 °F 43.1 °F 32.0 °F 61% 30.23 in 10.0 mi Variable 3.5 mph - N/A   Scattered Clouds
10:35 PM 44.6 °F 42.2 °F 32.0 °F 61% 30.24 in 10.0 mi North 4.6 mph - N/A   Partly Cloudy
10:55 PM 44.6 °F - 32.0 °F 61% 30.25 in 10.0 mi Calm Calm - N/A   Clear
11:15 PM 44.6 °F 42.2 °F 32.0 °F 61% 30.25 in 10.0 mi Variable 4.6 mph - N/A   Clear
11:35 PM 44.6 °F - 32.0 °F 61% 30.25 in 10.0 mi Calm Calm - N/A   Partly Cloudy
11:55 PM 42.8 °F - 32.0 °F 66% 30.25 in 10.0 mi Calm Calm - N/A   Clear